Index of /~robert/pro/publications/slides

[ICO]NameLast modifiedSizeDescription

[PARENTDIR]Parent Directory  -  
[   ]2015-10-C2-LaLondeLesMaures.pdf2015-12-09 00:46 471K 
[   ]2015-09-Providence-ICERM_long.pdf2015-09-30 05:28 727K 
[   ]2015-09-Providence-ICERM.pdf2015-09-30 05:28 639K 
[   ]2015-03-Franceville-Arithmetic.pdf2015-03-29 22:43 373K 
[   ]2014-12-Caen-Isogenies.pdf2015-03-04 19:57 422K 
[   ]2014-12-Caen-Arithmetic_slides.pdf2015-03-04 19:57 60K 
[   ]2014-10-ECC-Chennai.pdf2014-10-16 16:12 513K 
[   ]2014-05-Ascona.pdf2014-08-21 21:44 342K 
[   ]2014-04-Grenoble.pdf2014-08-21 21:44 57K 
[   ]2014-03-Neuchatel.pdf2014-08-21 21:44 594K 
[   ]2014-01-Caen.pdf2014-08-21 21:44 390K 
[   ]2013-12-Rennes-Peace.pdf2014-08-21 21:44 166K 
[   ]2013-11-Lfant.pdf2014-08-21 21:44 320K 
[   ]2013-10-Geocrypt-Tahiti.pdf2014-08-03 22:15 320K 
[   ]2013-06-AGCT-Marseille.pdf2014-08-03 22:15 284K 
[   ]2013-04-Labri-MinesNancy-Bordeaux.pdf2014-08-03 22:15 1.7M 
[   ]2012-11-Peace-Paris.pdf2014-08-03 22:15 184K 
[   ]2012-02-PrixTheseLorraine-Metz.pdf2014-08-03 22:15 247K 
[   ]2012-01-Telecom-Paris.pdf2014-08-03 22:15 671K 
[   ]2012-01-LIX-Paris.pdf2014-08-03 22:15 671K 
[   ]2011-06-Geocrypt-Bastia.pdf2014-08-03 22:15 514K 
[   ]2011-04-C2-Oleron.pdf2014-08-03 22:15 254K 
[   ]2010-12-Chic-Paris.pdf2014-08-03 22:15 370K 
[   ]2010-11-LIX-Paris.pdf2014-08-03 22:15 742K 
[   ]2010-10-ECC-Redmond.pdf2014-08-03 22:15 753K 
[   ]2010-07-Phd-Nancy.pdf2014-08-03 22:15 811K 
[   ]2010-07-ANTS-Nancy.pdf2014-08-03 22:15 334K 
[   ]2010-02-Bordeaux.pdf2014-08-03 22:15 1.3M 
[   ]2009-10-Chic-Paris_pairings.pdf2014-08-03 22:15 278K 
[   ]2009-10-Chic-Paris_isogenies.pdf2014-08-03 22:15 705K 
[   ]2009-07-JourneesArithmetiques-SaintEtienne.pdf2014-08-03 22:15 837K 
[   ]2013-09-Macisa-Lirima-Rabat.pdf2014-06-09 22:46 314K 
[   ]2013-08-Microsoft-Pairing.pdf2013-11-15 22:58 353K 
[   ]2013-08-Microsoft-Isogeny.pdf2013-11-15 22:58 285K 
[   ]2013-05-Lausanne.pdf2013-11-15 22:58 361K 
[   ]2013-04-Grenoble.pdf2013-11-15 22:58 352K 
[   ]2012-08-Microsoft.pdf2013-11-15 22:58 272K 
[   ]2012-07-ANTS-SanDiego.pdf2013-11-15 22:58 270K 
[   ]2012-05-Bordeaux.pdf2013-11-15 22:58 212K 
[   ]2012-03-Caen.pdf2013-11-15 22:58 523K 
[   ]2011-11-Montpellier.pdf2013-11-15 22:58 607K 
[   ]2011-09-Bordeaux.pdf2013-11-15 22:58 258K 
[   ]2011-03-Bordeaux.pdf2013-11-15 22:58 297K 
[   ]2011-02-Marseille_theta.pdf2013-11-15 22:58 544K 
[   ]2011-02-Marseille_pairings.pdf2013-11-15 22:58 246K 
[   ]2011-01-Versailles.pdf2013-11-15 22:58 524K 
[   ]2011-01-Grenoble.pdf2013-11-15 22:58 524K 
[   ]2010-12-Bordeaux.pdf2013-11-15 22:58 446K 
[   ]2010-09-Microsoft.pdf2013-11-15 22:58 365K 
[   ]2010-07-Microsoft.pdf2013-11-15 22:58 428K 
[   ]2010-05-Moscou.pdf2013-11-15 22:58 656K 
[   ]2009-11-Marseille.pdf2013-11-15 22:58 1.0M 
[   ]2009-04-Rennes.pdf2013-11-15 22:58 1.2M 
[   ]2008-11-Tsukuba.pdf2013-11-15 22:58 830K 

Apache/2.4.10 (Debian) Server at www.normalesup.org Port 80